This is the latest recevied weather packets stored in our database for station/object KJ4AJP. If no packets are shown the sender has not sent any weather packets the latest 10 day(s).
| Time | Temp. | Humidity | Pressure | Rain* | Wind** | Luminosity | Snow |
|---|---|---|---|---|---|---|---|
| 1778078143 | 10.56° C | 84% | 1014.4 hPa | 0 mm | - | 170 W/m² | - |
| 1778077841 | 10.56° C | 86% | 1014.2 hPa | 0 mm | - | 189 W/m² | - |
| 1778077538 | 10.56° C | 86% | 1014.6 hPa | 0 mm | - | 145 W/m² | - |
| 1778077237 | 10.56° C | 86% | 1014.4 hPa | 0 mm | - | 140 W/m² | - |
| 1778076934 | 10° C | 87% | 1014.2 hPa | 0 mm | - | 142 W/m² | - |
| 1778076632 | 10° C | 87% | 1014.2 hPa | 0 mm | - | 119 W/m² | - |
| 1778076329 | 10° C | 87% | 1013.8 hPa | 0 mm | - | 125 W/m² | - |
| 1778076026 | 10° C | 88% | 1013.8 hPa | 0 mm | - | 115 W/m² | - |
| 1778075723 | 10° C | 89% | 1013.9 hPa | 0 mm | - | 112 W/m² | - |
| 1778075419 | 10° C | 89% | 1013.7 hPa | 0 mm | - | 110 W/m² | - |
| 1778075116 | 10° C | 89% | 1013.7 hPa | 0 mm | - | 101 W/m² | - |
| 1778074812 | 10° C | 89% | 1013.5 hPa | 0 mm | - | 100 W/m² | - |
| 1778074509 | 9.44° C | 90% | 1013.5 hPa | 0 mm | - | 113 W/m² | - |
| 1778074206 | 9.44° C | 90% | 1013.5 hPa | 0 mm | - | 103 W/m² | - |
| 1778073903 | 9.44° C | 91% | 1013.2 hPa | 0 mm | - | 95 W/m² | - |
| 1778073601 | 9.44° C | 91% | 1013.2 hPa | 0 mm | - | 98 W/m² | - |
| 1778073298 | 9.44° C | 91% | 1013 hPa | 0 mm | - | 69 W/m² | - |
| 1778072994 | 9.44° C | 92% | 1013.3 hPa | 0 mm | - | 59 W/m² | - |
| 1778072690 | 9.44° C | 92% | 1013.4 hPa | 0 mm | - | 59 W/m² | - |
| 1778072388 | 8.89° C | 92% | 1013.4 hPa | 0 mm | - | 60 W/m² | - |
| 1778072086 | 8.89° C | 92% | 1013 hPa | 0 mm | - | 60 W/m² | - |
| 1778071784 | 8.89° C | 94% | 1013.2 hPa | 0 mm | - | 60 W/m² | - |
| 1778071482 | 8.89° C | 95% | 1012.6 hPa | 0 mm | - | 65 W/m² | - |
| 1778071179 | 8.89° C | 96% | 1012.7 hPa | 0 mm | - | 46 W/m² | - |
| 1778070877 | 8.89° C | 96% | 1012.7 hPa | 0 mm | - | 48 W/m² | - |
* Rain latest hour (hover to see other rain measurements)
** Current wind speed in m/s (hover to see current wind gust speed)